This demonstration page uses our WeatherBlox Daily Observations layout. Learn more.

Left ArrowRight Arrow

38.89511, -77.03637

Hourly Observations for July 9, 2018

Temp ( °F °C ) Dew Point ( °F °C ) Humidity (%) Winds ( mph kmh ) Pressure ( in mb ) Visibility ( mi km ) Precip ( " mm )
12:52 am 00:52 Clear 70 21.1 55 12.8 59 59 S 6 9 30.28 1026 10 16 0.00 0.00
1:52 am 01:52 Clear 69 20.6 54 12.2 59 59 Calm 30.28 1025 10 16 0.00 0.00
2:52 am 02:52 Clear 70 21.1 53 11.7 55 55 Calm 30.28 1025 10 16 0.00 0.00
3:52 am 03:52 Clear 67 19.4 55 12.8 66 66 NNW 5 7 30.28 1025 10 16 0.00 0.00
4:52 am 04:52 Clear 67 19.4 54 12.2 63 63 N 5 7 30.28 1025 10 16 0.00 0.00
5:52 am 05:52 Sunny 65 18.3 55 12.8 70 70 N 3 6 30.27 1025 10 16 0.00 0.00
6:52 am 06:52 Sunny 68 20 56 13.3 65 65 Calm 30.27 1025 10 16 0.00 0.00
7:52 am 07:52 Sunny 72 22.2 59 15 64 64 Calm 30.27 1025 10 16 0.00 0.00
8:52 am 08:52 Sunny 76 24.4 54 12.2 47 47 Calm 30.27 1025 10 16 0.00 0.00
9:52 am 09:52 Sunny 78 25.6 53 11.7 42 42 ESE 5 7 30.27 1025 10 16 0.00 0.00
10:52 am 10:52 Sunny 81 27.2 54 12.2 39 39 ESE 3 6 30.25 1024 10 16 0.00 0.00
11:52 am 11:52 Sunny 83 28.3 51 10.6 33 33 SSE 5 7 30.23 1024 10 16 0.00 0.00
12:52 pm 12:52 Mostly Sunny 84 28.9 53 11.7 34 34 VRB 6 9 30.22 1023 10 16 0.00 0.00
1:52 pm 13:52 Mostly Sunny 86 30 52 11.1 31 31 SSE 6 9 30.19 1022 10 16 0.00 0.00
2:52 pm 14:52 Mostly Sunny 87 30.6 53 11.7 31 31 SSE 6 9 30.16 1021 10 16 0.00 0.00
3:52 pm 15:52 Mostly Sunny 87 30.6 54 12.2 32 32 SSE 9 15 30.15 1021 10 16 0.00 0.00
4:52 pm 16:52 Mostly Sunny 87 30.6 56 13.3 35 35 S 13 20 30.13 1020 10 16 0.00 0.00
5:52 pm 17:52 Mostly Sunny 86 30 56 13.3 36 36 S 13 20 30.11 1020 10 16 0.00 0.00
6:52 pm 18:52 Mostly Sunny 85 29.4 58 14.4 40 40 S 12 19 30.10 1019 10 16 0.00 0.00
7:52 pm 19:52 Mostly Sunny 83 28.3 57 13.9 41 41 S 12 19 30.10 1019 10 16 0.00 0.00
8:52 pm 20:52 Mostly Clear 80 26.7 59 15 49 49 S 8 13 30.10 1019 10 16 0.00 0.00
9:52 pm 21:52 Clear 79 26.1 58 14.4 49 49 SSW 8 13 30.11 1020 10 16 0.00 0.00
10:52 pm 22:52 Clear 77 25 59 15 54 54 SSW 8 13 30.11 1020 10 16 0.00 0.00
11:52 pm 23:52 Clear 76 24.4 59 15 56 56 SSW 7 11 30.10 1019 10 16 0.00 0.00

Powered by AerisWeather